sat.trackr.live / text

‹ back to catalog

STARLINK-32862

NORAD 62864 · 2025-022L

PAYLOAD ACTIVE UNKNOWN

§ Identity

Operator
Country
US
Launch date
2025-02-01
Launch site
AFWTR
Launch vehicle
Mass (kg)
RCS (m²)

Purposes: comms

External: N2YO · Heavens-Above · Gunter

§ Orbital elements

Epoch: 2026-05-25T03:38:47.210784Z

Period
94.10 min
Inclination
53.1588°
Eccentricity
0.0001345
Mean motion
15.30223224 rev/d
Perigee alt
474.2 km
Apogee alt
476.1 km
Semi-major
6,853.3 km
B*
5.0268e-4
RAAN
134.6818°
Arg perigee
92.0463°
Mean anomaly
268.0691°
Rev number
7,360

§ Raw data

STARLINK-328621 62864U 25022L   26145.15193531  .00014569  00000+0  50268-3 0  99912 62864  53.1588 134.6818 0001345  92.0463 268.0691 15.30223224 73608

JSON: /api/v1/satellites/62864 · /tle

For live sub-satellite position, see the globe view (requires WebGL).

§ Visibility from observer

Set your observer location to see the next 7 days of passes ≥ 10°. The values pass through the URL so the page stays shareable.

No JS? Fill the form by hand. The geolocation button needs JavaScript.